Time,TemperatureF,DewpointF,PressureIn,WindDirection,WindDirectionDegrees,WindSpeedMPH,WindSpeedGustMPH,Humidity,HourlyPrecipIn,Conditions,Clouds,dailyrainin,SoftwareType,DateUTC
2013-06-02 00:02:00,60.0,-99.9,29.64,ENE,76,0.0,4.0,94,0.00,,,0.26,,2013-06-02 04:02:00,
2013-06-02 00:13:00,60.0,58.0,29.64,ENE,76,0.0,4.0,94,0.00,,,0.26,,2013-06-02 04:13:00,
2013-06-02 00:23:00,60.0,58.0,29.63,ENE,76,0.0,0.0,94,0.00,,,0.26,,2013-06-02 04:23:00,
2013-06-02 00:33:00,60.0,59.0,29.63,ESE,107,0.0,0.0,95,0.00,,,0.26,,2013-06-02 04:33:00,
2013-06-02 00:42:00,60.0,59.0,29.63,ESE,107,0.0,0.0,95,0.00,,,0.26,,2013-06-02 04:42:00,
2013-06-02 00:53:00,61.0,59.0,29.63,East,88,0.0,0.0,94,0.00,,,0.26,,2013-06-02 04:53:00,
2013-06-02 01:02:00,61.0,59.0,29.63,WSW,243,0.0,0.0,94,0.00,,,0.26,,2013-06-02 05:02:00,
2013-06-02 01:12:00,61.0,59.0,29.63,WSW,243,0.0,0.0,94,0.00,,,0.26,,2013-06-02 05:12:00,
2013-06-02 01:22:00,61.0,59.0,29.64,SSE,162,0.0,0.0,94,0.00,,,0.26,,2013-06-02 05:22:00,
2013-06-02 01:32:00,61.0,59.0,29.65,SSE,162,0.0,0.0,94,0.00,,,0.26,,2013-06-02 05:32:00,
2013-06-02 01:42:00,61.0,59.0,29.65,SSE,162,0.0,0.0,94,0.00,,,0.26,,2013-06-02 05:42:00,
2013-06-02 01:52:00,61.0,59.0,29.64,WSW,244,0.0,5.0,94,0.00,,,0.26,,2013-06-02 05:52:00,
2013-06-02 02:01:00,61.0,59.0,29.64,SSW,205,0.0,0.0,94,0.00,,,0.26,,2013-06-02 06:01:00,
2013-06-02 02:12:00,60.0,58.0,29.63,SW,227,0.0,1.0,93,0.00,,,0.26,,2013-06-02 06:12:00,
2013-06-02 02:21:00,60.0,58.0,29.63,SW,227,0.0,1.0,93,0.00,,,0.26,,2013-06-02 06:21:00,
2013-06-02 02:32:00,60.0,57.0,29.62,WSW,247,0.0,5.0,91,0.00,,,0.26,,2013-06-02 06:32:00,
2013-06-02 02:42:00,60.0,57.0,29.62,WSW,247,0.0,5.0,91,0.00,,,0.26,,2013-06-02 06:42:00,
2013-06-02 02:52:00,60.0,57.0,29.62,WNW,286,6.0,11.0,91,0.01,,,0.27,,2013-06-02 06:52:00,
2013-06-02 03:01:00,55.0,53.0,29.61,WNW,291,6.0,16.0,93,0.04,,,0.30,,2013-06-02 07:01:00,
2013-06-02 03:11:00,55.0,53.0,29.61,WNW,291,6.0,16.0,93,0.04,,,0.30,,2013-06-02 07:11:00,
2013-06-02 03:21:00,54.0,52.0,29.61,WNW,290,2.0,9.0,94,0.06,,,0.32,,2013-06-02 07:21:00,
2013-06-02 03:32:00,53.0,52.0,29.61,NW,306,0.0,11.0,95,0.06,,,0.32,,2013-06-02 07:32:00,
2013-06-02 03:42:00,53.0,52.0,29.59,NW,315,0.0,0.0,96,0.05,,,0.32,,2013-06-02 07:42:00,
2013-06-02 03:52:00,53.0,52.0,29.59,NW,315,0.0,0.0,96,0.05,,,0.32,,2013-06-02 07:52:00,
2013-06-02 04:02:00,53.0,52.0,29.59,NW,315,0.0,0.0,96,0.03,,,0.33,,2013-06-02 08:02:00,
2013-06-02 04:12:00,54.0,53.0,29.59,NW,305,6.0,10.0,96,0.01,,,0.33,,2013-06-02 08:12:00,
2013-06-02 04:21:00,54.0,53.0,29.59,NW,305,6.0,10.0,96,0.01,,,0.33,,2013-06-02 08:21:00,
2013-06-02 04:32:00,52.0,51.0,29.59,West,261,14.0,20.0,96,0.01,,,0.33,,2013-06-02 08:32:00,
2013-06-02 04:42:00,49.0,48.0,29.61,West,259,13.0,23.0,96,0.01,,,0.33,,2013-06-02 08:42:00,
2013-06-02 04:52:00,49.0,48.0,29.61,West,259,13.0,23.0,96,0.01,,,0.33,,2013-06-02 08:52:00,
2013-06-02 05:01:00,48.0,47.0,29.61,NW,321,11.0,20.0,96,0.00,,,0.33,,2013-06-02 09:01:00,
2013-06-02 05:11:00,47.0,46.0,29.62,WNW,292,13.0,20.0,96,0.00,,,0.33,,2013-06-02 09:11:00,
2013-06-02 05:21:00,47.0,46.0,29.62,WNW,292,13.0,20.0,96,0.00,,,0.33,,2013-06-02 09:21:00,
2013-06-02 05:33:00,46.0,45.0,29.62,NW,304,14.0,20.0,97,0.00,,,0.33,,2013-06-02 09:33:00,
2013-06-02 05:42:00,46.0,45.0,29.62,NW,304,14.0,20.0,97,0.00,,,0.33,,2013-06-02 09:42:00,
2013-06-02 05:53:00,46.0,45.0,29.64,WNW,286,10.0,17.0,97,0.00,,,0.33,,2013-06-02 09:53:00,
2013-06-02 06:02:00,46.0,45.0,29.64,NW,305,7.0,14.0,97,0.00,,,0.33,,2013-06-02 10:02:00,
2013-06-02 06:12:00,46.0,45.0,29.63,WSW,257,10.0,14.0,97,0.00,,,0.33,,2013-06-02 10:12:00,
2013-06-02 06:22:00,46.0,45.0,29.63,WSW,257,10.0,14.0,97,0.00,,,0.33,,2013-06-02 10:22:00,
2013-06-02 06:32:00,46.0,45.0,29.63,WNW,284,9.0,16.0,97,0.00,,,0.33,,2013-06-02 10:32:00,
2013-06-02 06:42:00,46.0,45.0,29.63,WNW,284,9.0,16.0,97,0.00,,,0.33,,2013-06-02 10:42:00,
2013-06-02 06:52:00,46.0,45.0,29.64,WNW,295,8.0,17.0,97,0.00,,,0.33,,2013-06-02 10:52:00,
2013-06-02 07:02:00,46.0,45.0,29.65,NW,304,14.0,19.0,96,0.00,,,0.33,,2013-06-02 11:02:00,
2013-06-02 07:12:00,46.0,45.0,29.65,NW,304,14.0,19.0,96,0.00,,,0.33,,2013-06-02 11:12:00,
2013-06-02 07:22:00,46.0,45.0,29.65,West,269,9.0,19.0,96,0.01,,,0.34,,2013-06-02 11:22:00,
2013-06-02 07:32:00,46.0,45.0,29.66,West,279,12.0,16.0,96,0.03,,,0.36,,2013-06-02 11:32:00,
2013-06-02 07:42:00,46.0,45.0,29.66,West,279,12.0,16.0,96,0.03,,,0.36,,2013-06-02 11:42:00,
2013-06-02 07:52:00,46.0,45.0,29.66,West,275,7.0,18.0,96,0.05,,,0.32,,2013-06-02 11:52:00,
2013-06-02 08:01:00,46.0,45.0,29.67,WNW,285,9.0,20.0,97,0.05,,,0.32,,2013-06-02 12:01:00,
2013-06-02 08:11:00,46.0,45.0,29.67,WNW,285,9.0,20.0,97,0.05,,,0.32,,2013-06-02 12:11:00,
2013-06-02 08:21:00,46.0,45.0,29.68,NW,312,15.0,20.0,97,0.04,,,0.32,,2013-06-02 12:21:00,
2013-06-02 08:32:00,45.0,44.0,29.69,WNW,290,12.0,22.0,96,0.02,,,0.32,,2013-06-02 12:32:00,
2013-06-02 08:42:00,45.0,44.0,29.69,WNW,290,12.0,22.0,96,0.02,,,0.32,,2013-06-02 12:42:00,
2013-06-02 08:52:00,45.0,44.0,29.70,NW,306,10.0,20.0,96,0.00,,,0.14,,2013-06-02 12:52:00,
2013-06-02 09:01:00,45.0,44.0,29.72,West,261,12.0,19.0,96,0.01,,,0.15,,2013-06-02 13:01:00,
2013-06-02 09:12:00,45.0,44.0,29.72,West,261,12.0,19.0,96,0.01,,,0.15,,2013-06-02 13:12:00,
2013-06-02 09:21:00,44.0,43.0,29.73,West,261,9.0,19.0,96,0.01,,,0.15,,2013-06-02 13:21:00,
2013-06-02 09:32:00,44.0,43.0,29.74,West,267,12.0,20.0,96,0.01,,,0.15,,2013-06-02 13:32:00,
2013-06-02 09:42:00,44.0,43.0,29.74,West,267,12.0,20.0,96,0.01,,,0.15,,2013-06-02 13:42:00,
2013-06-02 09:52:00,44.0,43.0,29.74,WNW,290,15.0,21.0,96,0.02,,,0.14,,2013-06-02 13:52:00,
2013-06-02 10:02:00,44.0,43.0,29.74,WNW,282,13.0,23.0,96,0.01,,,0.14,,2013-06-02 14:02:00,
2013-06-02 10:11:00,44.0,43.0,29.75,West,271,10.0,22.0,96,0.01,,,0.14,,2013-06-02 14:11:00,
2013-06-02 10:21:00,44.0,43.0,29.75,West,271,10.0,22.0,96,0.01,,,0.14,,2013-06-02 14:21:00,
2013-06-02 10:32:00,44.0,43.0,29.76,West,281,10.0,18.0,96,0.01,,,0.14,,2013-06-02 14:32:00,
2013-06-02 10:42:00,44.0,43.0,29.76,West,281,10.0,18.0,96,0.01,,,0.14,,2013-06-02 14:42:00,
2013-06-02 10:52:00,44.0,43.0,29.77,West,281,10.0,18.0,96,0.00,,,0.14,,2013-06-02 14:52:00,
2013-06-02 11:01:00,44.0,43.0,29.77,West,275,13.0,24.0,96,0.00,,,0.14,,2013-06-02 15:01:00,
2013-06-02 11:11:00,44.0,43.0,29.77,West,275,13.0,24.0,96,0.00,,,0.14,,2013-06-02 15:11:00,
2013-06-02 11:21:00,44.0,43.0,29.78,WNW,294,9.0,18.0,96,0.00,,,0.14,,2013-06-02 15:21:00,
2013-06-02 11:33:00,44.0,43.0,29.79,West,277,10.0,17.0,95,0.00,,,0.14,,2013-06-02 15:33:00,
2013-06-02 11:43:00,44.0,43.0,29.80,West,263,10.0,19.0,95,0.00,,,0.14,,2013-06-02 15:43:00,
2013-06-02 11:53:00,44.0,43.0,29.80,West,263,10.0,19.0,95,0.00,,,0.14,,2013-06-02 15:53:00,
2013-06-02 12:03:00,44.0,43.0,29.81,West,261,10.0,20.0,95,0.00,,,0.14,,2013-06-02 16:03:00,
2013-06-02 12:13:00,44.0,43.0,29.81,West,261,10.0,20.0,95,0.00,,,0.14,,2013-06-02 16:13:00,
2013-06-02 12:23:00,44.0,43.0,29.82,NW,304,7.0,19.0,95,0.00,,,0.14,,2013-06-02 16:23:00,
2013-06-02 12:33:00,44.0,43.0,29.83,West,279,12.0,21.0,95,0.00,,,0.14,,2013-06-02 16:33:00,
2013-06-02 12:42:00,44.0,43.0,29.83,West,279,12.0,21.0,95,0.00,,,0.14,,2013-06-02 16:42:00,
2013-06-02 12:53:00,44.0,42.0,29.83,West,260,12.0,24.0,93,0.00,,,0.14,,2013-06-02 16:53:00,
2013-06-02 13:02:00,45.0,43.0,29.84,WNW,288,16.0,20.0,93,0.00,,,0.14,,2013-06-02 17:02:00,
2013-06-02 13:12:00,45.0,43.0,29.85,West,281,9.0,20.0,93,0.00,,,0.14,,2013-06-02 17:12:00,
2013-06-02 13:23:00,45.0,43.0,29.85,West,281,9.0,20.0,93,0.00,,,0.14,,2013-06-02 17:23:00,
2013-06-02 13:32:00,45.0,43.0,29.85,WNW,290,13.0,19.0,91,0.00,,,0.14,,2013-06-02 17:32:00,
2013-06-02 13:42:00,44.0,42.0,29.86,WSW,257,10.0,19.0,92,0.00,,,0.14,,2013-06-02 17:42:00,
2013-06-02 13:52:00,44.0,42.0,29.86,WSW,257,10.0,19.0,92,0.00,,,0.14,,2013-06-02 17:52:00,
2013-06-02 14:02:00,45.0,43.0,29.86,West,277,8.0,22.0,92,0.00,,,0.14,,2013-06-02 18:02:00,
2013-06-02 14:11:00,45.0,42.0,29.86,WNW,292,11.0,21.0,90,0.00,,,0.14,,2013-06-02 18:11:00,
2013-06-02 14:21:00,45.0,42.0,29.86,WNW,292,11.0,21.0,90,0.00,,,0.14,,2013-06-02 18:21:00,
2013-06-02 14:32:00,45.0,42.0,29.86,West,265,8.0,19.0,89,0.00,,,0.14,,2013-06-02 18:32:00,
2013-06-02 14:42:00,45.0,42.0,29.88,West,269,10.0,18.0,89,0.00,,,0.14,,2013-06-02 18:42:00,
2013-06-02 14:52:00,45.0,42.0,29.88,West,269,10.0,18.0,89,0.00,,,0.14,,2013-06-02 18:52:00,
2013-06-02 15:01:00,46.0,43.0,29.89,West,274,7.0,18.0,88,0.00,,,0.14,,2013-06-02 19:01:00,
2013-06-02 15:11:00,46.0,43.0,29.89,West,274,7.0,18.0,88,0.00,,,0.14,,2013-06-02 19:11:00,
2013-06-02 15:21:00,46.0,43.0,29.90,West,281,10.0,20.0,88,0.00,,,0.14,,2013-06-02 19:21:00,
2013-06-02 15:32:00,47.0,43.0,29.90,WNW,293,15.0,23.0,86,0.00,,,0.14,,2013-06-02 19:32:00,
2013-06-02 15:42:00,47.0,43.0,29.90,WNW,293,15.0,23.0,86,0.00,,,0.14,,2013-06-02 19:42:00,
2013-06-02 15:52:00,46.0,42.0,29.91,West,271,11.0,20.0,86,0.00,,,0.14,,2013-06-02 19:52:00,
2013-06-02 16:02:00,47.0,43.0,29.92,West,272,9.0,19.0,86,0.00,,,0.14,,2013-06-02 20:02:00,
2013-06-02 16:11:00,47.0,43.0,29.92,West,272,9.0,19.0,86,0.00,,,0.14,,2013-06-02 20:11:00,
2013-06-02 16:22:00,47.0,43.0,29.92,WNW,302,15.0,20.0,85,0.00,,,0.14,,2013-06-02 20:22:00,
2013-06-02 16:32:00,47.0,43.0,29.92,WNW,287,13.0,20.0,86,0.00,,,0.14,,2013-06-02 20:32:00,
2013-06-02 16:42:00,47.0,43.0,29.92,WNW,287,13.0,20.0,86,0.00,,,0.14,,2013-06-02 20:42:00,
2013-06-02 16:52:00,47.0,43.0,29.93,WNW,284,13.0,17.0,87,0.00,,,0.14,,2013-06-02 20:52:00,
2013-06-02 17:01:00,47.0,42.0,29.93,WNW,303,11.0,24.0,84,0.00,,,0.14,,2013-06-02 21:01:00,
2013-06-02 17:12:00,47.0,42.0,29.93,NW,317,15.0,20.0,83,0.00,,,0.14,,2013-06-02 21:12:00,
2013-06-02 17:21:00,47.0,42.0,29.93,NW,317,15.0,20.0,83,0.00,,,0.14,,2013-06-02 21:21:00,
2013-06-02 17:33:00,47.0,42.0,29.93,NW,317,12.0,23.0,84,0.00,,,0.14,,2013-06-02 21:33:00,
2013-06-02 17:42:00,47.0,42.0,29.93,NW,317,12.0,23.0,84,0.00,,,0.14,,2013-06-02 21:42:00,
2013-06-02 17:53:00,47.0,42.0,29.93,West,279,12.0,18.0,83,0.00,,,0.14,,2013-06-02 21:53:00,
2013-06-02 18:03:00,47.0,42.0,29.94,WNW,287,9.0,21.0,82,0.00,,,0.14,,2013-06-02 22:03:00,
2013-06-02 18:12:00,47.0,42.0,29.94,WNW,287,9.0,21.0,82,0.00,,,0.14,,2013-06-02 22:12:00,
2013-06-02 18:23:00,47.0,41.0,29.94,NW,312,13.0,23.0,81,0.00,,,0.14,,2013-06-02 22:23:00,
2013-06-02 18:33:00,47.0,42.0,29.95,WNW,288,13.0,18.0,82,0.00,,,0.14,,2013-06-02 22:33:00,
2013-06-02 18:42:00,47.0,42.0,29.95,WNW,288,13.0,18.0,82,0.00,,,0.14,,2013-06-02 22:42:00,
2013-06-02 18:53:00,46.0,41.0,29.95,NW,308,12.0,22.0,82,0.00,,,0.14,,2013-06-02 22:53:00,
2013-06-02 19:02:00,46.0,41.0,29.96,WNW,296,12.0,20.0,82,0.00,,,0.14,,2013-06-02 23:02:00,
2013-06-02 19:12:00,46.0,41.0,29.96,WNW,296,12.0,20.0,82,0.00,,,0.14,,2013-06-02 23:12:00,
2013-06-02 19:22:00,46.0,40.0,29.96,West,281,12.0,20.0,80,0.00,,,0.14,,2013-06-02 23:22:00,
2013-06-02 19:32:00,46.0,40.0,29.96,WNW,287,11.0,16.0,79,0.00,,,0.14,,2013-06-02 23:32:00,
2013-06-02 19:42:00,46.0,40.0,29.96,WNW,287,11.0,16.0,79,0.00,,,0.14,,2013-06-02 23:42:00,
2013-06-02 19:52:00,47.0,41.0,29.96,West,266,10.0,17.0,79,0.00,,,0.14,,2013-06-02 23:52:00,
2013-06-02 20:01:00,47.0,41.0,29.97,NW,315,6.0,15.0,78,0.00,,,0.14,,2013-06-03 00:01:00,
2013-06-02 20:12:00,47.0,41.0,29.97,WNW,293,0.0,13.0,78,0.00,,,0.14,,2013-06-03 00:12:00,
2013-06-02 20:22:00,47.0,41.0,29.97,WNW,293,0.0,13.0,78,0.00,,,0.14,,2013-06-03 00:22:00,
2013-06-02 20:32:00,47.0,41.0,29.97,NW,304,7.0,12.0,78,0.00,,,0.14,,2013-06-03 00:32:00,
2013-06-02 20:42:00,46.0,40.0,29.97,WNW,284,7.0,13.0,80,0.00,,,0.14,,2013-06-03 00:42:00,
2013-06-02 20:52:00,46.0,40.0,29.97,WNW,284,7.0,13.0,80,0.00,,,0.14,,2013-06-03 00:52:00,
2013-06-02 21:01:00,46.0,40.0,29.97,WNW,290,6.0,11.0,80,0.00,,,0.14,,2013-06-03 01:01:00,
2013-06-02 21:11:00,46.0,40.0,29.97,WNW,290,6.0,11.0,80,0.00,,,0.14,,2013-06-03 01:11:00,
2013-06-02 21:21:00,45.0,39.0,29.97,West,279,0.0,11.0,80,0.00,,,0.14,,2013-06-03 01:21:00,
2013-06-02 21:32:00,45.0,40.0,29.98,WNW,290,4.0,12.0,81,0.00,,,0.14,,2013-06-03 01:32:00,
2013-06-02 21:42:00,45.0,40.0,29.98,WNW,290,4.0,12.0,81,0.00,,,0.14,,2013-06-03 01:42:00,
2013-06-02 21:52:00,44.0,39.0,29.98,WNW,291,5.0,10.0,83,0.00,,,0.14,,2013-06-03 01:52:00,
2013-06-02 22:02:00,44.0,39.0,29.98,WNW,284,4.0,9.0,83,0.00,,,0.14,,2013-06-03 02:02:00,
2013-06-02 22:12:00,44.0,39.0,29.98,WNW,284,4.0,9.0,83,0.00,,,0.14,,2013-06-03 02:12:00,
2013-06-02 22:22:00,45.0,40.0,29.98,WNW,303,5.0,10.0,82,0.00,,,0.14,,2013-06-03 02:22:00,
2013-06-02 22:32:00,44.0,39.0,29.99,NW,309,3.0,8.0,82,0.00,,,0.14,,2013-06-03 02:32:00,
2013-06-02 22:42:00,44.0,39.0,29.99,NW,309,3.0,8.0,82,0.00,,,0.14,,2013-06-03 02:42:00,
2013-06-02 22:52:00,44.0,39.0,29.99,NW,305,3.0,11.0,81,0.00,,,0.14,,2013-06-03 02:52:00,
2013-06-02 23:02:00,44.0,39.0,29.99,WNW,291,0.0,0.0,82,0.00,,,0.14,,2013-06-03 03:02:00,
2013-06-02 23:12:00,43.0,38.0,29.99,WNW,301,0.0,0.0,82,0.00,,,0.14,,2013-06-03 03:12:00,
2013-06-02 23:22:00,43.0,38.0,29.99,WNW,301,0.0,0.0,82,0.00,,,0.14,,2013-06-03 03:22:00,
2013-06-02 23:33:00,43.0,38.0,29.99,WNW,302,2.0,10.0,82,0.00,,,0.14,,2013-06-03 03:33:00,
2013-06-02 23:43:00,43.0,38.0,29.99,WNW,302,2.0,10.0,82,0.00,,,0.14,,2013-06-03 03:43:00,
2013-06-02 23:53:00,43.0,38.0,29.99,WNW,285,0.0,0.0,84,0.00,,,0.14,,2013-06-03 03:53:00,